Regional Weather Roundup
Issued by NWS Jackson, KY

Home | Current Version | Previous Version | Text Only | Print | Product List | Glossary On
Versions: 1 2 3 4 5 6 7 8 9 10 11 12 13 14 15 16 17 18 19 20 21 22 23 24 25 26 27 28 29 30 31 32 33 34 35 36 37 38 39 40 41 42 43 44 45 46 47 48 49 50
000
ASUS43 KJKL 270605
RWRJKL

EAST KENTUCKY HOURLY WEATHER ROUNDUP
NATIONAL WEATHER SERVICE JACKSON KY
100 AM EST TUE JAN 27 2015

NOTE: "FAIR" INDICATES FEW OR NO CLOUDS BELOW 12,000 FEET WITH
NO SIGNIFICANT WEATHER AND/OR OBSTRUCTIONS TO VISIBILITY.

* THESE REPORTS ARE NOT UNDER NWS QUALITY CONTROL AND MAY NOT
  REPORT WEATHER SUCH AS PRECIPITATION AND FOG.

KYZ079-080-083-085-087-088-110-112-115-119-120-270700
...EASTERN KENTUCKY...

CITY           SKY/WX    TMP DP  RH WIND       PRES   REMARKS
JACKSON        CLOUDY    26  22  84 CALM      29.89F
6HR MIN TEMP:  26; 6HR MAX TEMP:  27;

LONDON         CLOUDY    30  23  75 SW3       29.90F
6HR MIN TEMP:  30; 6HR MAX TEMP:  30;

SOMERSET*      CLOUDY    30  28  93 W3        29.93F
MONTICELLO*    CLOUDY    30  28  92 CALM      29.94F
6HR MIN TEMP:  29; 6HR MAX TEMP:  30; 6HR PCP: TRACE;

MIDDLESBORO*   CLOUDY    31  25  80 W3        29.92S
6HR MIN TEMP:  30; 6HR MAX TEMP:  31;

HARLAN APT*    CLOUDY    28  23  80 W3        29.88F
BLACK MTN*       N/A     18  18 100 N3          N/A
PIKEVILLE APT* CLOUDY    25  19  80 W3        29.88F
BIG SANDY*     CLOUDY    26  19  73 W3        29.90S
6HR MIN TEMP:  26; 6HR MAX TEMP:  27;

MOREHEAD APT*  CLOUDY    27  23  86 CALM      29.93F
$$

KYZ035-036-041-042-044-050-067-078-099-270700
...CENTRAL KENTUCKY...

CITY           SKY/WX    TMP DP  RH WIND       PRES   REMARKS
MT STERLING*   CLOUDY    28  27  93 CALM      29.92F
FLEMING/MASON* CLOUDY    21  17  86 E5        29.93F WCI  15
DANVILLE*      CLOUDY    30  28  93 CALM      29.92F
RICHMOND*      CLOUDY    28  25  86 CALM      29.91F
LEXINGTON      CLOUDY    28  23  81 CALM      29.91F
6HR MIN TEMP:  28; 6HR MAX TEMP:  28;

FRANKFORT      CLOUDY    29  23  78 CALM      29.91F
6HR MIN TEMP:  28; 6HR MAX TEMP:  29; 6HR PCP: TRACE;

$$

KYZ091>093-OHZ055-061-077-WVZ005-015-034-035-042-270700
...SOUTHERN OHIO/WEST VIRGINIA...

CITY           SKY/WX    TMP DP  RH WIND       PRES   REMARKS
COVINGTON      CLOUDY    24  16  71 E5        29.92F WCI  18
COLUMBUS       MOCLDY    10   7  87 NE3       29.94F
DAYTON         CLOUDY    16  12  84 CALM      29.93F
WILMINGTON     CLOUDY    14  10  84 NE7       29.92F WCI   4
HUNTINGTON     CLOUDY    22  18  85 N5        29.92S WCI  16
CHARLESTON     MOCLDY    23  18  81 NW5       29.89F WCI  17
PINEVILLE*     CLOUDY    27  22  82 MISG      29.89S
BECKLEY        LGT SNOW  20  15  81 W9        29.78F WCI   9
BLUEFIELD      CLOUDY    22  16  78 NW8       29.75F WCI  12
$$

VAZ002-007-008-TNZ017-027-036-066-071-270700
...SOUTHWEST VIRGINIA/EAST TENNESSEE...

CITY           SKY/WX    TMP DP  RH WIND       PRES   REMARKS
WISE*          CLOUDY    25  23  93 W7        29.81F WCI  17
ABINGDON*      CLOUDY    28  22  76 NW7       29.82F WCI  21
BRISTOL        CLOUDY    30  22  72 W8        29.86F WCI  22
KNOXVILLE      FLURRIES  30  29  96 SW7       29.93F WCI  23
OAK RIDGE      CLOUDY    32  28  85 SW3       29.94F
CROSSVILLE     CLOUDY    29  25  85 CALM      29.88F
NASHVILLE      CLOUDY    34  31  88 SE3       29.93F
$$

...KEY TO REMARKS...
VSB - VISIBILITY IN MILES
WCI - WIND CHILL INDEX
HX  - HEAT INDEX

$$


USA.gov is the U.S. government's official web portal to all federal, state and local government web resources and services.